sat.trackr.live / text

‹ back to catalog

KUIPER-00215

NORAD 67779 · 2026-030R

PAYLOAD ACTIVE UNKNOWN

§ Identity

Operator
Country
US
Launch date
2026-02-12
Launch site
FRGUI
Launch vehicle
Mass (kg)
RCS (m²)

External: N2YO · Heavens-Above · Gunter

§ Orbital elements

Epoch: 2026-05-25T04:00:03.998880Z

Period
95.49 min
Inclination
51.9003°
Eccentricity
0.0010127
Mean motion
15.08066265 rev/d
Perigee alt
535.1 km
Apogee alt
549.1 km
Semi-major
6,920.2 km
B*
8.6340e-4
RAAN
212.6618°
Arg perigee
350.4542°
Mean anomaly
61.8851°
Rev number
588

§ Raw data

KUIPER-002151 67779U 26030R   26145.16671295  .00013214  00000+0  86340-3 0  99962 67779  51.9003 212.6618 0010127 350.4542  61.8851 15.08066265  5885

JSON: /api/v1/satellites/67779 · /tle

For live sub-satellite position, see the globe view (requires WebGL).

§ Visibility from observer

Set your observer location to see the next 7 days of passes ≥ 10°. The values pass through the URL so the page stays shareable.

No JS? Fill the form by hand. The geolocation button needs JavaScript.